Вернуться в каталог

BREEZE-M R/B

АктивенMEO
NORAD 36359·ROCKET BODY·🇷🇺 Russia

Запущен Jan 28, 2010 с Baikonur Cosmodrome

Loading…

Ближайшие Пролёты (ближайшие 24 часа)

TLE

СвежийSource: Space-Track

Эпоха: Sep 14, 2026, 12:17 UTC

1 36359U 10002B   26257.51230198 -.00000216  00000-0  00000-0 0  9990
2 36359  11.0461  35.6108 0210764 257.5515 289.2936  1.04041315 63157

Отслеживайте BREEZE-M R/B в реальном времени с AllMySat

Download on the App Store